Location: U-46 Planetarium
(42.0300°N, 88.2740°W)
Time: 18:31:52
(UTC-06:00)

Cosmos 1743 - Pass Details

Date: 16 December 2017
Orbit: 513 x 528 km, 82.6° (Epoch: 21 January)

Event Time Altitude Azimuth Distance (km) Brightness Sun altitude
Rises 17:29:48 0° 346° (NNW) 2,663 6.3 -12.0°
Reaches altitude 10° 17:32:00 10° 340° (NNW) 1,771 5.4 -12.4°
Maximum altitude 17:35:44 48° 267° (W) 699 3.8 -13.0°
Drops below altitude 10° 17:39:28 10° 192° (SSW) 1,764 5.8 -13.7°
Sets 17:41:39 0° 187° (S) 2,649 6.7 -14.1°
